DW5582 Weather Reports


Display with metric or nautical units.
time (UTC)temp
F
wind
direction
speed
MPH
gust
MPH
rain 1hr
in
rain 24hr
in
rain mn
in
humidity
%
barometer
mb
20260502163039 56 232 0.0 0.0 0.12 0.36 0.36 87 1012.2
20260502161521 56 231 0.0 1.0 0.14 0.33 0.33 86 1012.3
20260502151519 59 231 0.0 4.0 0.18 0.18 0.18 78 1013.4
20260502123026 65 305 1.0 4.0 0.00 0.00 0.00 66 1014.8
20260502121512 66 305 0.0 4.0 0.00 0.00 0.00 66 1015.0
20260502114520 66 305 0.0 3.0 0.00 0.02 0.00 66 1015.5
20260502113024 65 305 0.0 2.0 0.00 0.02 0.00 69 1015.4
20260502111527 64 305 1.0 5.0 0.00 0.05 0.00 69 1015.7
20260502110012 63 302 0.0 3.0 0.00 0.05 0.00 70 1016.2
20260502104518 62 302 0.0 3.0 0.00 0.05 0.00 71 1016.5
20260502103024 62 300 1.0 4.0 0.00 0.05 0.00 72 1016.8
20260502101504 62 113 0.0 6.0 0.00 0.05 0.00 73 1017.0
20260502091524 58 5 0.0 3.0 0.00 0.05 0.00 86 1017.2
20260502071520 50 261 0.0 0.0 0.00 0.05 0.00 92 1018.1
20260502070030 50 261 0.0 0.0 0.00 0.05 0.00 92 1018.1
20260502064538 49 261 0.0 0.0 0.00 0.05 0.00 92 1018.1
20260502063010 49 261 0.0 0.0 0.00 0.05 0.00 92 1018.1
20260502061516 48 261 0.0 0.0 0.00 0.05 0.00 92 1018.2
20260502060019 48 261 0.0 0.0 0.00 0.05 0.00 91 1018.3
20260502054526 48 261 0.0 0.0 0.00 0.05 0.00 91 1018.4
20260502053029 48 261 0.0 0.0 0.00 0.05 0.00 91 1018.5
20260502051519 48 261 0.0 0.0 0.00 0.05 0.00 91 1018.4
20260502050024 48 261 0.0 0.0 0.00 0.05 0.00 91 1018.3
20260502044523 48 261 0.0 0.0 0.00 0.05 0.00 91 1018.2
20260502043027 47 261 0.0 0.0 0.00 0.05 0.00 91 1018.2
20260502041526 47 261 0.0 0.0 0.00 0.05 0.00 91 1018.2
20260502040016 47 261 0.0 0.0 0.00 0.05 0.00 91 1018.5
20260502034533 46 261 0.0 0.0 0.00 0.05 0.00 90 1018.7
20260502033025 46 261 0.0 0.0 0.00 0.05 0.00 89 1018.8
20260502031528 47 261 0.0 0.0 0.00 0.05 0.00 90 1018.8
20260502030028 47 261 0.0 3.0 0.00 0.05 0.00 90 1018.8
20260502024519 47 261 0.0 1.0 0.00 0.05 0.00 90 1018.8
20260502023022 47 261 0.0 3.0 0.00 0.05 0.00 89 1019.0
20260502021525 47 261 1.0 4.0 0.00 0.05 0.00 89 1019.1
20260502020027 47 261 0.0 0.0 0.00 0.05 0.00 89 1019.1
20260502014547 47 261 0.0 4.0 0.00 0.05 0.00 89 1019.3
20260502013020 47 261 0.0 2.0 0.00 0.05 0.00 88 1019.3
20260502011522 47 261 0.0 0.0 0.00 0.05 0.00 88 1019.4
20260502010010 47 261 0.0 0.0 0.00 0.05 0.00 88 1019.4
20260502004512 47 261 0.0 0.0 0.00 0.05 0.00 87 1019.6
20260502003017 47 261 0.0 0.0 0.00 0.05 0.00 87 1019.6
20260502001522 48 261 0.0 0.0 0.00 0.05 0.00 87 1019.9
20260502000015 48 261 0.0 0.0 0.00 0.05 0.00 87 1019.9
20260501234508 48 261 0.0 0.0 0.00 0.05 0.00 86 1020.0
20260501233014 48 261 0.0 0.0 0.00 0.05 0.00 86 1020.2
20260501231524 48 261 0.0 0.0 0.00 0.05 0.00 85 1020.3
20260501230023 48 261 0.0 0.0 0.00 0.05 0.00 85 1020.5
20260501224508 49 261 0.0 0.0 0.00 0.05 0.05 84 1020.4
20260501223011 49 261 0.0 0.0 0.00 0.05 0.05 84 1020.4
20260501221522 50 261 0.0 0.0 0.00 0.05 0.05 84 1020.4
20260501220020 50 261 0.0 0.0 0.00 0.05 0.05 83 1020.4
20260501214534 51 261 1.0 4.0 0.00 0.05 0.05 83 1020.4
20260501213008 51 261 0.0 3.0 0.00 0.05 0.05 82 1020.3
20260501211510 52 261 0.0 3.0 0.00 0.05 0.05 81 1020.3
20260501210016 52 261 0.0 3.0 0.00 0.05 0.05 81 1020.3
20260501204520 53 261 1.0 4.0 0.00 0.05 0.05 80 1020.3
20260501203029 53 261 2.0 7.0 0.00 0.05 0.05 80 1020.3
20260501201509 54 317 0.0 3.0 0.00 0.05 0.05 80 1020.2
20260501200016 55 317 0.0 3.0 0.00 0.05 0.05 79 1020.1
20260501194523 56 317 0.0 4.0 0.00 0.05 0.05 77 1020.0
20260501193023 57 317 0.0 3.0 0.00 0.05 0.05 77 1020.0
20260501191526 57 317 0.0 0.0 0.00 0.05 0.05 76 1020.0
20260501190015 58 317 1.0 5.0 0.00 0.05 0.05 76 1019.9
20260501184514 59 317 1.0 4.0 0.00 0.05 0.05 75 1019.9
20260501183042 59 294 1.0 7.0 0.00 0.05 0.05 74 1019.8
20260501181534 60 298 1.0 5.0 0.00 0.05 0.05 78 1019.7
20260501180033 61 298 2.0 7.0 0.00 0.05 0.05 78 1019.7
20260501174512 61 317 1.0 5.0 0.00 0.05 0.05 77 1019.7
20260501173018 61 317 0.0 4.0 0.00 0.05 0.05 77 1019.7